User: anonymous   Login
Location: Unspecified
(0.0000°N, 0.0000°E)
Time: 13:31:12
(UTC+02:00)
Language:

Hamsat - Orbit

View from above orbital plane
View from above orbital plane
View from above satellite
View from above satellite

Ground track
Ground track

The orbit data is extracted from the following two-line orbital elements,

1 28650U 05017B   15115.47572939  .00003323  00000-0  37311-3 0  9992
2 28650 097.5734 110.3400 0023573 202.2877 157.7317 14.87210267539618
Epoch (UTC): 25 April 2015 11:25:03
Eccentricity: 0.0023573
inclination: 97.5734°
perigee height: 590 km
apogee height: 623 km
right ascension of ascending node: 110.3400°
argument of perigee: 202.2877°
revolutions per day: 14.87210267
mean anomaly at epoch: 157.7317°
orbit number at epoch: 53961

The dashed part of the orbit path shows where the satellite is in the earth's shadow,  

DLR